Вернуться в каталог

DELTA 1 DEB

АктивенSSO
NORAD 7152·DEBRIS·🇺🇸 United States

Запущен Nov 6, 1973 с Vandenberg Space Force Base

Loading…

Ближайшие Пролёты (ближайшие 24 часа)

TLE

СвежийSource: Space-Track

Эпоха: Sep 14, 2026, 09:16 UTC

1 07152U 73086DS  26257.38665449 -.00000063  00000-0 -15041-3 0  9991
2 07152 102.3084 216.0552 0080185 266.5233 249.1868 12.28555446369643

Отслеживайте DELTA 1 DEB в реальном времени с AllMySat

Download on the App Store